Change the Weather History Date:

Thursday, July 3, 2014

  Actual Average Record
Temperature  
Mean Temperature 86 °F -  
Max Temperature 99 °F 87 °F 99 °F (2014)
Min Temperature 75 °F 73 °F 46 °F (2002)
Cooling Degree Days 22    
Growing Degree Days 36 (Base 50)    
Moisture  
Dew Point 71 °F    
Average Humidity 71    
Maximum Humidity 84    
Minimum Humidity 36    
Precipitation  
Precipitation 0.34 in - - ()
Sea Level Pressure  
Sea Level Pressure 29.95 in    
Wind  
Wind Speed 7 mph (WSW)    
Max Wind Speed 15 mph    
Max Gust Speed 32 mph    
Visibility 9 miles    
Events Rain , Thunderstorm    
Averages and records for this station are not official NWS values.
T = Trace of Precipitation, MM = Missing Value Source: NWS Daily Summary

Daily Weather History Graph

Daily Weather History Graph

Search for Another Location

Airport or City:

Trip Planner

Search our weather history database for the weather conditions in past years. The results will help you decide how hot, cold, wet, or windy it might be!

Date:

Astronomy

Jul. 03, 2014 Rise Set
Actual Time 6:28 AM EDT 8:31 PM EDT
Civil Twilight 6:00 AM EDT 8:59 PM EDT
Nautical Twilight 5:27 AM EDT 9:32 PM EDT
Astronomical Twilight 4:51 AM EDT 10:08 PM EDT
Moon 12:00 PM EDT (7/3) No Moon Set
Length of Visible Light 14h 58m
Length of Day
14h 03m
Waxing Crescent, 33% of the Moon is Illuminated
Jul 3
Waxing Crescent
Jul 5
First Quarter
Jul 12
Full
Jul 18
Last Quarter
Jul 26
New

Hourly Weather History & Observations

Time (EDT) Temp. Heat Index Dew Point Humidity Pressure Visibility Wind Dir Wind Speed Gust Speed Precip Events Conditions
12:52 AM 81.0 °F 86.2 °F 73.9 °F 79% 29.90 in 10.0 mi Variable 4.6 mph - 0.00 in   Mostly Cloudy
1:52 AM 80.1 °F 84.5 °F 73.9 °F 81% 29.89 in 10.0 mi North 8.1 mph - N/A   Partly Cloudy
2:52 AM 79.0 °F - 73.9 °F 84% 29.88 in 10.0 mi West 5.8 mph - N/A   Partly Cloudy
3:52 AM 79.0 °F - 73.0 °F 82% 29.88 in 10.0 mi West 8.1 mph - N/A   Clear
4:52 AM 78.1 °F - 73.0 °F 84% 29.88 in 10.0 mi West 8.1 mph - N/A   Clear
5:52 AM 78.1 °F - 72.0 °F 81% 29.90 in 10.0 mi West 5.8 mph - N/A   Clear
6:52 AM 78.1 °F - 72.0 °F 81% 29.93 in 10.0 mi Variable 5.8 mph - N/A   Clear
6:59 AM 78.1 °F - 72.0 °F 81% 29.93 in 10.0 mi West 5.8 mph - N/A   Mostly Cloudy
7:52 AM 79.0 °F - 72.0 °F 79% 29.93 in 10.0 mi West 8.1 mph - N/A   Mostly Cloudy
8:52 AM 82.0 °F 86.3 °F 71.1 °F 69% 29.94 in 10.0 mi WNW 5.8 mph - N/A   Mostly Cloudy
9:52 AM 84.9 °F 89.4 °F 70.0 °F 61% 29.96 in 10.0 mi West 4.6 mph - N/A   Mostly Cloudy
10:52 AM 88.0 °F 92.1 °F 69.1 °F 53% 29.97 in 10.0 mi Variable 5.8 mph - N/A   Mostly Cloudy
11:52 AM 90.0 °F 94.5 °F 69.1 °F 50% 29.96 in 10.0 mi WSW 8.1 mph - N/A   Mostly Cloudy
12:52 PM 91.0 °F 99.3 °F 73.0 °F 55% 29.96 in 10.0 mi WSW 9.2 mph - N/A   Mostly Cloudy
1:52 PM 93.9 °F 102.1 °F 72.0 °F 49% 29.95 in 10.0 mi WSW 9.2 mph 18.4 mph N/A   Mostly Cloudy
2:52 PM 97.0 °F 102.8 °F 69.1 °F 40% 29.92 in 10.0 mi Variable 5.8 mph - N/A   Mostly Cloudy
3:52 PM 98.1 °F 102.4 °F 66.9 °F 36% 29.91 in 10.0 mi WSW 9.2 mph - N/A   Mostly Cloudy
4:28 PM 95.0 °F 99.5 °F 68.0 °F 41% 29.92 in 10.0 mi SSW 12.7 mph - N/A Thunderstorm Thunderstorm
4:43 PM 82.0 °F 87.4 °F 73.0 °F 74% 29.98 in 1.0 mi WSW 15.0 mph 32.2 mph 0.20 in Rain , Thunderstorm Heavy Thunderstorms and Rain
4:52 PM 79.0 °F - 72.0 °F 79% 29.98 in 1.0 mi SW 9.2 mph 23.0 mph 0.34 in Rain , Thunderstorm Heavy Thunderstorms and Rain
5:21 PM 79.0 °F - 71.1 °F 77% 30.00 in 7.0 mi Variable 6.9 mph - N/A Thunderstorm Thunderstorm
5:52 PM 78.1 °F - 72.0 °F 81% 29.99 in 7.0 mi North 4.6 mph - N/A Thunderstorm Thunderstorm
6:15 PM 78.1 °F - 72.0 °F 81% 29.98 in 7.0 mi SW 5.8 mph - N/A Rain Light Rain
6:52 PM 78.1 °F - 71.1 °F 79% 29.97 in 7.0 mi SW 9.2 mph - N/A Rain Light Rain
7:52 PM 75.9 °F - 69.1 °F 79% 29.99 in 7.0 mi WSW 8.1 mph - N/A   Overcast
8:03 PM 75.9 °F - 69.1 °F 79% 30.00 in 10.0 mi SW 8.1 mph - N/A   Overcast
8:52 PM 75.9 °F - 70.0 °F 82% 30.00 in 10.0 mi SW 10.4 mph - N/A   Overcast
9:52 PM 77.0 °F - 68.0 °F 74% 30.01 in 10.0 mi WSW 15.0 mph - N/A   Overcast
10:52 PM 77.0 °F - 69.1 °F 76% 30.02 in 10.0 mi SW 11.5 mph - N/A   Overcast
11:52 PM 77.0 °F - 69.1 °F 76% 30.02 in 10.0 mi SW 9.2 mph - N/A   Overcast